Starlink 11678

operational
NORAD ID: 64326 Int'l Des: 2025-124 Owner: SPXS Country: US Constellation: starlink
LEOCIRCULAR

Über Starlink 11678

Beschreibung wird geladen...

Live-Position

3D-Globus wird geladen...

Nächste Überflüge

Höhenverlauf

Altitude vs Time

uPlot chart will show altitude changes over time

Zweizeiliger Elementsatz

1 64326U 25124K 25354.15271969 .00174191 00000-0 13217-2 0 9993
2 64326 42.9995 148.7834 0002586 285.9297 74.1285 15.71036762 30322
Epoch: 20. Dez. 2025 • Age: 10 hours

Aktueller Status

Höhe 359.2 km
Geschwindigkeit 7.70 km/s
Subsatellitenpunkt 37.81°N, 18.56°W
Startdatum 10. Juni 2025
Alter 0.5 years
Typ internet

Technische Details

Klassifizierung Payload
Masse 960.00 kg
Trockenmasse 910.00 kg
Gesamtmasse 960.00 kg
Länge 0.30 m
Durchmesser 4.10 m
Spannweite 29.00 m
Form Box + pan
Hersteller SPXS
Bus-Typ Starlink V2MD
Phasenstatus In Orbit
Besitzer/Staat SPXS/US

Große Konstellationen

Loading constellations...